Vorticity
10 8 4 -7 -1 5 6 6 7 7 8 8 7 6 5 5 3 5 5 5 6 5 4 8 4 5 3 4 4 6 8 5 5 8 8 6 5 6 7 8 7 9 8
0 10 -16 26 0 8 4 7 6 4 6 7 5 4 4 4 7 8 8 8 7 6 5 7 7 6 3 1 5 6 7 6 5 7 2 5 8 8 8 6 9 9 6
20 -1 10 9 8 6 2 0 7 7 6 3 3 3 4 5 4 5 6 7 8 9 8 8 9 8 4 5 5 3 -1 4 5 9 4 0 1 4 9 7 6 9 8
10 9 5 3 3 2 4 7 6 5 4 4 4 4 4 4 3 4 5 5 7 7 8 9 7 8 5 5 3 3 8 -1 1 6 2 4 8 5 4 6 2 6 2
6 3 3 4 3 5 4 6 5 6 6 5 4 2 4 6 5 7 6 7 7 7 8 6 7 8 8 4 9 -2 1 4 5 4 6 6 5 5 6 4 5 2 4
4 3 3 6 4 4 5 5 6 6 6 5 4 7 6 7 6 7 7 7 6 7 6 8 7 8 5 5 5 9 6 2 -3 6 6 8 9 7 10 7 3 6 8
1 4 6 6 5 5 5 6 7 8 8 8 9 10 8 6 6 4 4 6 6 6 6 9 8 9 7 6 5 5 6 6 10 0 8 4 8 5 4 7 8 8 7
5 6 6 6 5 5 6 8 9 9 8 7 15 13 10 9 4 5 5 4 4 4 12 4 5 7 9 8 7 6 4 4 10 -2 -2 3 2 2 8 5 4 8 7
6 4 6 4 7 6 8 8 9 9 8 10 11 12 10 9 7 8 9 8 4 4 6 8 9 7 4 5 6 7 7 6 6 9 17 2 4 -1 2 4 8 7 10
7 7 5 9 7 9 5 5 8 7 4 6 7 7 7 8 8 6 4 6 6 6 8 12 12 13 9 10 9 7 5 6 6 -12 -4 5 7 6 11 3 1 5 7
6 8 8 9 8 5 6 7 8 8 8 8 9 7 8 -7 12 9 12 14 14 14 13 12 10 11 12 14 13 11 11 13 9 7 8 10 8 7 10 5 2 4 2
7 8 8 7 6 3 6 6 12 9 8 9 11 10 9 8 8 10 9 8 9 8 11 9 8 8 10 12 10 11 11 10 15 10 13 10 13 12 4 27 -9 2 6
9 11 7 5 3 6 6 8 9 6 5 5 4 6 6 4 -4 -13 2 17 1 -8 27 6 4 6 5 5 7 9 11 10 10 9 15 15 10 8 13 19 9 8 4
12 7 4 6 6 7 8 8 8 7 4 6 3 3 3 4 1 20 3 7 6 7 5 5 6 5 3 4 4 3 3 3 5 9 9 12 16 9 13 11 5 25 4
6 6 6 6 5 6 10 9 7 4 4 2 4 3 4 2 3 15 2 3 2 4 4 5 5 5 5 5 4 4 5 6 4 3 3 5 11 11 13 11 10 12 7
6 3 6 3 6 6 5 6 5 4 4 4 5 4 3 2 3 5 5 5 6 5 5 5 4 5 5 5 5 6 5 6 7 6 5 5 5 6 10 14 10 8 13
4 3 6 5 4 7 6 4 7 12 6 5 5 6 -0 5 6 5 8 6 5 4 4 4 3 2 3 4 4 5 5 6 7 7 7 6 6 5 4 7 7 10 9
5 6 4 4 4 3 4 3 2 4 9 7 8 4 5 4 6 4 4 3 3 4 5 4 4 4 5 4 5 5 5 5 6 7 8 7 7 6 5 4 4 5 7
7 4 3 1 4 4 4 3 2 4 6 10 10 7 8 7 5 4 4 3 1 2 3 4 5 5 6 6 7 6 6 7 6 7 8 8 8 7 5 5 4 5 5
4 3 3 3 7 6 3 2 6 9 13 8 4 6 6 4 4 7 4 2 1 2 2 4 6 7 6 6 7 6 7 6 6 8 9 8 9 7 7 6 8 5 7
3 3 3 4 3 5 9 5 8 6 7 7 7 3 6 3 3 5 3 3 2 4 3 4 6 6 7 7 7 6 7 6 6 7 10 8 7 8 8 9 6 5 7
5 4 3 4 7 8 6 5 8 6 6 6 5 4 4 5 3 2 2 5 12 12 6 6 7 6 7 5 7 6 7 8 5 5 5 9 7 9 8 8 6 5 6
7 5 5 5 6 5 5 5 9 9 5 4 3 5 4 4 2 1 3 10 7 8 9 10 10 11 7 6 5 7 6 6 7 5 2 3 8 9 8 10 6 6 9
5 7 8 8 6 5 5 6 6 5 4 3 3 3 3 5 7 10 10 10 10 10 8 9 10 11 9 9 6 7 5 3 5 5 4 4 4 5 7 7 6 4 2
7 8 5 8 8 7 6 6 5 3 3 3 3 2 5 10 8 5 12 13 12 11 10 8 12 9 12 10 11 7 6 3 3 4 5 7 2 10 7 6 5 4 4
4 3 10 14 7 7 6 5 6 5 4 4 3 7 2 10 10 14 18 18 12 9 10 10 13 14 11 14 16 6 5 5 4 3 4 2 5 4 6 8 4 5 5
Height
5888 5890 5890 5891 5891 5892 5893 5895 5896 5897 5897 5897 5897 5897 5898 5898 5899 5899 5899 5898 5899 5899 5899 5900 5900 5901 5901 5901 5902 5901 5900 5900 5901 5901 5901 5902 5902 5903 5904 5905 5905 5906 5908
5892 5893 5893 5893 5893 5894 5895 5897 5898 5899 5898 5899 5899 5899 5900 5901 5901 5901 5901 5900 5900 5900 5901 5901 5901 5902 5902 5902 5903 5902 5902 5901 5902 5902 5902 5904 5904 5905 5906 5907 5908 5909 5910
5894 5895 5895 5896 5897 5897 5899 5900 5900 5901 5900 5900 5901 5901 5902 5902 5902 5903 5902 5901 5901 5902 5902 5902 5903 5903 5903 5904 5904 5903 5903 5903 5904 5904 5904 5904 5906 5906 5907 5908 5908 5910 5911
5896 5897 5897 5899 5900 5901 5901 5900 5901 5901 5901 5902 5903 5904 5904 5904 5904 5904 5903 5903 5903 5904 5904 5904 5904 5904 5905 5905 5905 5904 5904 5905 5906 5905 5906 5906 5906 5907 5908 5909 5910 5910 5912
5899 5899 5900 5901 5901 5902 5902 5901 5902 5903 5903 5904 5905 5906 5906 5905 5904 5905 5905 5905 5906 5906 5906 5906 5906 5906 5907 5906 5906 5907 5907 5907 5908 5908 5909 5908 5908 5908 5908 5910 5911 5912 5912
5900 5901 5902 5902 5903 5903 5903 5903 5903 5904 5905 5906 5907 5907 5906 5906 5906 5907 5907 5907 5907 5907 5907 5907 5907 5907 5907 5907 5907 5908 5909 5909 5910 5905 5909 5909 5909 5909 5909 5909 5910 5911 5912
5902 5902 5903 5903 5904 5905 5905 5905 5905 5907 5907 5907 5908 5908 5908 5908 5908 5908 5909 5909 5909 5908 5908 5908 5908 5908 5908 5908 5907 5908 5910 5911 5909 5908 5909 5909 5911 5912 5911 5911 5911 5912 5912
5903 5904 5904 5905 5905 5906 5907 5907 5908 5908 5908 5909 5909 5909 5909 5909 5910 5910 5910 5910 5910 5910 5909 5909 5909 5908 5908 5908 5908 5909 5910 5909 5907 5907 5906 5906 5908 5912 5913 5913 5912 5913 5913
5905 5905 5906 5907 5907 5907 5908 5909 5909 5910 5911 5911 5911 5911 5911 5911 5912 5912 5912 5912 5912 5911 5911 5910 5909 5909 5908 5909 5909 5909 5909 5906 5906 5902 5896 5907 5906 5909 5912 5913 5913 5913 5914
5906 5906 5907 5908 5908 5910 5911 5911 5912 5913 5913 5914 5914 5914 5912 5912 5913 5915 5915 5916 5916 5915 5914 5912 5911 5910 5909 5909 5909 5909 5909 5905 5904 5873 5887 5907 5907 5907 5909 5911 5911 5912 5914
5906 5907 5908 5909 5911 5912 5912 5913 5914 5915 5916 5916 5916 5915 5914 5917 5917 5915 5915 5915 5916 5917 5917 5915 5913 5911 5910 5909 5909 5909 5909 5907 5903 5904 5906 5906 5906 5907 5907 5909 5910 5908 5909
5906 5907 5909 5911 5912 5914 5914 5915 5916 5918 5918 5918 5918 5918 5917 5917 5914 5915 5916 5914 5914 5915 5916 5918 5916 5913 5912 5912 5910 5911 5910 5908 5906 5904 5905 5906 5905 5904 5906 5905 5909 5908 5909
5907 5909 5911 5913 5914 5916 5916 5917 5918 5919 5920 5920 5920 5921 5920 5917 5916 5920 5919 5916 5919 5918 5911 5919 5919 5916 5914 5913 5913 5912 5912 5911 5909 5907 5905 5904 5904 5904 5903 5906 5900 5902 5905
5909 5911 5913 5915 5916 5917 5918 5919 5920 5921 5921 5922 5922 5923 5922 5919 5925 5910 5921 5916 5919 5923 5921 5920 5921 5918 5916 5915 5914 5914 5913 5912 5911 5910 5909 5907 5906 5904 5902 5902 5902 5893 5903
5910 5912 5915 5917 5918 5919 5920 5920 5921 5921 5922 5923 5923 5924 5924 5922 5925 5924 5920 5919 5920 5922 5921 5922 5921 5919 5917 5916 5915 5915 5913 5913 5912 5911 5911 5909 5908 5905 5903 5903 5903 5903 5904
5911 5913 5916 5917 5919 5920 5920 5921 5922 5923 5923 5923 5924 5925 5926 5925 5924 5924 5926 5927 5927 5926 5924 5922 5921 5919 5918 5917 5915 5915 5914 5914 5912 5912 5911 5910 5909 5907 5905 5905 5905 5904 5904
5911 5914 5917 5918 5919 5920 5921 5922 5923 5923 5924 5924 5925 5926 5927 5927 5928 5927 5927 5927 5926 5925 5924 5922 5920 5918 5917 5917 5915 5914 5913 5912 5912 5911 5911 5911 5909 5908 5905 5904 5904 5903 5903
5913 5915 5916 5917 5919 5920 5921 5922 5923 5924 5925 5925 5926 5926 5927 5928 5928 5928 5927 5926 5926 5924 5923 5921 5920 5918 5917 5916 5915 5914 5912 5911 5911 5910 5910 5909 5909 5908 5906 5905 5903 5902 5902
5913 5915 5916 5917 5919 5920 5921 5922 5923 5924 5925 5926 5926 5926 5926 5926 5926 5926 5926 5925 5925 5924 5922 5921 5919 5917 5916 5915 5914 5913 5912 5911 5909 5909 5908 5908 5907 5907 5906 5905 5903 5902 5900
5913 5915 5916 5917 5919 5920 5921 5922 5923 5924 5924 5925 5926 5926 5926 5925 5925 5926 5925 5924 5923 5922 5921 5920 5918 5916 5914 5913 5912 5911 5911 5909 5909 5907 5906 5905 5905 5905 5904 5903 5903 5901 5900
5913 5914 5915 5917 5918 5919 5920 5921 5922 5923 5924 5924 5925 5925 5926 5926 5925 5925 5924 5923 5923 5921 5919 5918 5917 5915 5913 5910 5909 5909 5907 5908 5907 5905 5905 5903 5902 5901 5901 5900 5900 5900 5899
5912 5913 5914 5916 5917 5917 5919 5920 5920 5921 5923 5923 5924 5924 5924 5924 5925 5924 5923 5923 5921 5919 5917 5916 5915 5913 5912 5909 5907 5906 5906 5906 5904 5904 5902 5901 5901 5900 5898 5897 5898 5897 5895
5911 5912 5913 5914 5915 5916 5917 5918 5919 5920 5921 5922 5922 5923 5923 5924 5923 5922 5921 5919 5918 5917 5915 5914 5911 5910 5909 5908 5905 5904 5903 5902 5901 5900 5900 5898 5898 5897 5897 5896 5893 5895 5894
5909 5910 5912 5912 5913 5914 5915 5916 5917 5918 5919 5920 5921 5921 5921 5922 5921 5921 5919 5917 5915 5913 5912 5910 5908 5906 5905 5905 5903 5901 5900 5898 5898 5898 5899 5898 5896 5891 5892 5892 5890 5889 5890
5907 5908 5909 5910 5911 5911 5912 5914 5914 5915 5915 5917 5918 5919 5919 5920 5919 5919 5916 5914 5912 5910 5908 5906 5904 5903 5901 5900 5899 5898 5895 5894 5894 5892 5892 5893 5893 5893 5888 5886 5886 5885 5882
5904 5905 5905 5906 5907 5908 5909 5910 5912 5913 5913 5914 5914 5915 5917 5917 5917 5914 5912 5910 5907 5904 5902 5899 5897 5896 5895 5894 5893 5892 5892 5891 5889 5888 5886 5885 5884 5885 5886 5885 5882 5880 5879